Weather History for Gainesville, GA

Change the Weather History Date:

Tuesday, February 12, 2013

  Actual Average Record
Temperature  
Mean Temperature 50 °F 45 °F  
Max Temperature 55 °F 54 °F 75 °F (1938)
Min Temperature 43 °F 36 °F 9 °F (1981)
Degree Days  
Heating Degree Days 16 20  
Month to date heating degree days 254  
Since 1 July heating degree days 2172  
Moisture  
Dew Point 36 °F    
Average Humidity 66    
Maximum Humidity 89    
Minimum Humidity 33    
Precipitation  
Precipitation 0.10 in 0.17 in 1.30 in (1948)
Month to date precipitation 1.90  
Year to date precipitation 6.93  
Snow  
Snow 0.00 in - - ()
Month to date snowfall  
Since 1 July snowfall  
Snow Depth -    
Sea Level Pressure  
Sea Level Pressure 30.01 in    
Wind  
Wind Speed 6 mph (WNW)    
Max Wind Speed 16 mph    
Max Gust Speed 21 mph    
Visibility 10 miles    
Events Rain    
T = Trace of Precipitation, MM = Missing Value Source: NWS Daily Summary

Daily Weather History Graph

Daily Weather History Graph

Search for Another Location

Airport:

Trip Planner

Search our weather history database for the weather conditions in past years. The results will help you decide how hot, cold, wet, or windy it might be!

Date:

Astronomy

Feb. 12, 2013 Rise Set
Actual Time 7:23 AM EST 6:16 PM EST
Civil Twilight 6:57 AM EST 6:42 PM EST
Nautical Twilight 6:27 AM EST 7:11 PM EST
Astronomical Twilight 5:58 AM EST 7:40 PM EST
Moon 8:29 AM EST (2/12) 9:05 PM EST (2/12)
Length of Visible Light 11h 44m
Length of Day
10h 53m
Waxing Crescent, 7% of the Moon is Illuminated
Feb 12
Waxing Crescent
Feb 17
First Quarter
Feb 25
Full
Mar 4
Last Quarter
Mar 11
New

Hourly Weather History & Observations

Time (EST) Temp. Windchill Dew Point Humidity Pressure Visibility Wind Dir Wind Speed Gust Speed Precip Events Conditions
12:53 AM 48.9 °F - 42.1 °F 77% 30.06 in 10.0 mi WNW 4.6 mph - N/A   Mostly Cloudy
1:53 AM 48.0 °F - 42.1 °F 80% 30.07 in 10.0 mi West 5.8 mph - N/A   Scattered Clouds
2:53 AM 46.9 °F - 39.9 °F 77% 30.06 in 10.0 mi West 6.9 mph - N/A   Clear
3:53 AM 46.0 °F 41.9 °F 39.9 °F 79% 30.07 in 10.0 mi WSW 8.1 mph - N/A   Clear
4:53 AM 46.0 °F 43.9 °F 39.0 °F 76% 30.06 in 10.0 mi WSW 4.6 mph - N/A   Mostly Cloudy
5:53 AM 45.0 °F 41.2 °F 37.9 °F 76% 30.07 in 10.0 mi West 6.9 mph - N/A   Clear
6:53 AM 45.0 °F 41.2 °F 36.0 °F 71% 30.09 in 10.0 mi WNW 6.9 mph - N/A   Clear
7:53 AM 45.0 °F 41.2 °F 34.0 °F 65% 30.11 in 10.0 mi West 6.9 mph - N/A   Clear
8:53 AM 45.0 °F 42.6 °F 34.0 °F 65% 30.09 in 10.0 mi WNW 4.6 mph - N/A   Partly Cloudy
9:53 AM 48.9 °F - 28.9 °F 46% 30.09 in 10.0 mi North 3.5 mph - N/A   Overcast
10:53 AM 54.0 °F - 28.0 °F 37% 30.08 in 10.0 mi WNW 3.5 mph - N/A   Clear
11:49 AM 55.4 °F - 26.6 °F 33% 30.09 in 10.0 mi WSW 16.1 mph 160.0 mph N/A   Clear
11:53 AM 55.0 °F - 27.0 °F 34% 30.08 in 10.0 mi North - - N/A   Clear
12:53 PM 55.0 °F - 28.9 °F 37% 30.04 in 10.0 mi Calm Calm - N/A   Clear
1:53 PM 55.0 °F - 32.0 °F 42% 30.02 in 10.0 mi WNW 3.5 mph - N/A   Clear
2:53 PM 54.0 °F - 34.0 °F 47% 30.02 in 10.0 mi SW 3.5 mph - N/A   Overcast
3:53 PM 53.1 °F - 33.1 °F 47% 30.00 in 10.0 mi Calm Calm - 0.00 in Rain Light Rain
4:53 PM 51.1 °F - 37.0 °F 59% 29.94 in 10.0 mi NE 3.5 mph - 0.00 in   Overcast
5:53 PM 51.1 °F - 37.0 °F 59% 29.96 in 10.0 mi SSE 3.5 mph - 0.00 in Rain Light Rain
6:53 PM 48.0 °F - 42.1 °F 80% 29.95 in 10.0 mi ESE 5.8 mph - 0.03 in Rain Light Rain
7:53 PM 46.9 °F - 42.1 °F 83% 29.94 in 10.0 mi East 8.1 mph - 0.02 in   Mostly Cloudy
8:53 PM 46.0 °F 43.1 °F 43.0 °F 89% 29.95 in 10.0 mi East 5.8 mph - 0.00 in Rain Light Rain
9:53 PM 45.0 °F 40.1 °F 41.0 °F 86% 29.92 in 9.0 mi East 9.2 mph - 0.05 in Rain Light Rain
10:53 PM 44.1 °F 37.4 °F 39.9 °F 85% 29.90 in 10.0 mi East 13.8 mph 20.7 mph 0.00 in   Overcast
11:18 PM 44.6 °F 38.8 °F 39.2 °F 81% 29.88 in 10.0 mi East 11.5 mph - N/A   Mostly Cloudy
11:27 PM 44.6 °F 39.2 °F 39.2 °F 81% 29.88 in 10.0 mi ENE 10.4 mph 18.4 mph N/A   Overcast
11:53 PM 43.0 °F 38.2 °F 39.0 °F 86% 29.88 in 10.0 mi East 8.1 mph - N/A   Overcast